Voltar ao catálogo

SDA_1669

AtivoMilitarPO
NORAD 65979·PAYLOAD·🇺🇸 United States

Lançado Oct 15, 2025 de Vandenberg Space Force Base

Loading…

Próximas Passagens (próximas 24 horas)

TLE

AtualizadoSource: Space-Track

Época: Sep 14, 2026, 15:49 UTC

1 65979U 25230F   26257.65945483  .00000153  00000-0  13255-3 0  9992
2 65979  81.3000 128.9322 0003342 342.8403  17.2639 13.81708526 46181

Acompanhe SDA_1669 em tempo real com AllMySat

Download on the App Store